EW8487 Weather Reports


time (UTC)temp
F
wind
direction
speed
knots
gust
knots
rain 1hr
in
rain 24hr
in
rain mn
in
humidity
%
barometer
mb
20260504045555 48 281 0.0 0.9 0.00 0.02 0.00 99 1009.8
20260504044055 48 251 0.0 0.9 0.00 0.02 0.00 99 1009.8
20260504042555 48 241 0.0 0.9 0.00 0.02 0.00 99 1009.6
20260504041054 49 252 0.0 0.9 0.00 0.02 0.00 99 1009.7
20260504035556 49 272 0.9 0.9 0.00 0.02 0.00 99 1010.0
20260504034055 50 268 0.9 0.9 0.00 0.02 0.00 99 1009.8
20260504032555 51 276 0.0 0.9 0.00 0.02 0.00 99 1010.1
20260504031054 51 232 0.0 0.9 0.00 0.02 0.00 99 1010.2
20260504025555 51 263 0.0 0.9 0.00 0.02 0.00 98 1010.0
20260504021055 50 267 0.0 0.9 0.00 0.02 0.00 98 1010.5
20260504015555 51 300 0.0 0.9 0.00 0.02 0.00 98 1010.5
20260504014055 51 262 0.0 0.9 0.00 0.02 0.00 98 1010.6
20260504012555 52 229 0.0 0.9 0.00 0.02 0.00 97 1010.5
20260504011055 51 302 0.0 0.9 0.00 0.02 0.00 96 1010.5
20260504005556 51 256 0.0 0.9 0.00 0.02 0.00 96 1010.7
20260504004055 52 242 0.0 0.9 0.00 0.02 0.00 96 1010.7
20260504002556 52 250 0.0 0.9 0.00 0.02 0.00 95 1011.0
20260504001055 53 213 0.0 0.9 0.00 0.02 0.00 95 1010.9
20260503235555 53 232 0.0 0.9 0.00 0.02 0.00 94 1010.8
20260503234055 53 251 0.0 0.9 0.00 0.02 0.00 94 1010.9
20260503232555 53 273 0.9 0.9 0.00 0.02 0.00 95 1011.0
20260503231055 54 234 0.0 0.9 0.00 0.02 0.00 95 1011.1
20260503225555 54 240 0.0 0.9 0.00 0.02 0.00 93 1011.1
20260503224055 55 356 0.0 0.9 0.00 0.02 0.00 88 1011.3
20260503222554 55 346 0.0 0.9 0.00 0.02 0.00 88 1011.1
20260503221056 54 222 0.0 0.9 0.00 0.02 0.00 89 1011.3
20260503214121 54 147 0.0 0.9 0.00 0.02 0.02 90 1011.3
20260503211106 53 226 0.9 0.9 0.00 0.02 0.02 91 1011.4
20260503204055 54 249 0.0 0.0 0.00 0.02 0.02 90 1011.0
20260503202556 55 249 0.0 0.0 0.00 0.02 0.02 88 1010.6
20260503201054 55 240 0.0 0.9 0.00 0.02 0.02 87 1010.6
20260503195555 56 242 0.0 0.9 0.00 0.02 0.02 85 1010.5
20260503194059 57 292 0.0 0.9 0.00 0.02 0.02 84 1010.2
20260503192555 58 266 0.0 0.9 0.00 0.02 0.02 82 1010.1
20260503191055 59 218 0.0 0.9 0.00 0.02 0.02 80 1010.3
20260503185556 61 277 0.0 0.9 0.00 0.02 0.02 73 1010.0
20260503184055 62 253 0.9 0.9 0.00 0.02 0.02 71 1009.9
20260503182556 63 267 0.9 0.9 0.00 0.02 0.02 69 1009.6
20260503181055 64 237 0.0 0.9 0.00 0.02 0.02 72 1009.8
20260503174056 64 174 0.0 0.9 0.00 0.02 0.02 77 1009.5
20260503172555 64 197 0.0 0.9 0.00 0.02 0.02 77 1009.7
20260503171056 65 104 0.0 0.9 0.00 0.02 0.02 76 1009.6
20260503131055 63 257 0.9 0.9 0.00 0.00 0.00 80 1010.8
20260503081055 53 225 0.0 1.7 0.00 0.00 0.00 98 1012.7
20260503072555 54 21 0.0 0.9 0.00 0.00 0.00 94 1012.2